Location: La Trinit�
(48.1620°N, 3.4512°W)
Time: 18:39:42
(UTC+00:00)

ERS-1 Rocket - Pass Details

Date: 08 May 2021
Orbit: 753 x 757 km, 98.4° (Epoch: 21 June)

Event Time Altitude Azimuth Distance (km) Brightness Sun altitude
Exits shadow 22:30:52 24° 213° (SSW) 1,518 4.2 -20.8°
Maximum altitude 22:33:13 38° 263° (W) 1,147 4.0 -21.0°
Drops below altitude 10° 22:37:55 10° 331° (NNW) 2,292 6.6 -21.3°
Sets 22:40:23 0° 340° (NNW) 3,223 7.8 -21.5°
